When you browse on this site, cookies collect data to enhance your experience and personalize the content and advertising you see.
Visit our Privacy Policy to learn more. By continuing to use the site, you agree to this use of cookies and data.
  • En España
  • Lista de países
  • Para 7 días
  • Temperatura del agua
  • El tiempo en el mapa
  • Informadores
  • user-avatar
    Iniciar sesión

    Tiempo cada hora Newcastle upon Tyne

    Hoy, 5 Diciembre, Jueves

    Tiempo Temperatura Precipitaciones Viento Presión Humedad
    00:00 +3°C° 0 mm 5 mps 754 mmHg 85%
    01:00 +3°C° 0 mm 6 mps 754 mmHg 84%
    02:00 +3°C° 0 mm 6 mps 754 mmHg 82%
    03:00 +4°C° 0 mm 7 mps 754 mmHg 80%
    04:00 +4°C° 0 mm 7 mps 754 mmHg 81%
    05:00 +3°C° 0 mm 7 mps 753 mmHg 82%
    06:00 +3°C° 0 mm 6 mps 753 mmHg 85%
    07:00 +4°C° 0 mm 6 mps 753 mmHg 83%
    08:00 +4°C° 0 mm 6 mps 752 mmHg 82%
    09:00 +4°C° 0 mm 7 mps 752 mmHg 81%
    10:00 +5°C° 0 mm 7 mps 751 mmHg 79%
    11:00 +5°C° 0 mm 8 mps 751 mmHg 78%
    12:00 +6°C° 0 mm 9 mps 750 mmHg 77%
    13:00 +6°C° 0.1 mm 9 mps 748 mmHg 78%
    14:00 +7°C° 0.1 mm 10 mps 747 mmHg 80%
    15:00 +8°C° 0.1 mm 11 mps 745 mmHg 81%
    16:00 +9°C° 0.2 mm 11 mps 744 mmHg 82%
    17:00 +9°C° 0.2 mm 11 mps 743 mmHg 82%
    18:00 +11°C° 0.2 mm 11 mps 743 mmHg 83%
    19:00 +11°C° 0.4 mm 11 mps 743 mmHg 83%
    20:00 +11°C° 0.4 mm 11 mps 742 mmHg 83%
    21:00 +11°C° 0.4 mm 11 mps 742 mmHg 83%
    22:00 +11°C° 0 mm 9 mps 742 mmHg 85%
    23:00 +11°C° 0 mm 8 mps 742 mmHg 86%

    Mañana, 6 Diciembre, Viernes

    Tiempo Temperatura Precipitaciones Viento Presión Humedad
    00:00 +11°C° 0 mm 7 mps 743 mmHg 88%
    01:00 +11°C° 0.1 mm 6 mps 742 mmHg 88%
    02:00 +11°C° 0.1 mm 6 mps 742 mmHg 89%
    03:00 +12°C° 0.1 mm 5 mps 741 mmHg 89%
    04:00 +12°C° 0.1 mm 5 mps 741 mmHg 89%
    05:00 +12°C° 0.1 mm 5 mps 741 mmHg 89%
    06:00 +10°C° 0.1 mm 6 mps 741 mmHg 89%
    07:00 +10°C° 0.1 mm 6 mps 741 mmHg 88%
    08:00 +10°C° 0.1 mm 6 mps 740 mmHg 87%
    09:00 +10°C° 0.1 mm 6 mps 740 mmHg 86%
    10:00 +10°C° 0.3 mm 6 mps 740 mmHg 84%
    11:00 +10°C° 0.3 mm 5 mps 740 mmHg 82%
    12:00 +10°C° 0.3 mm 5 mps 740 mmHg 80%
    13:00 +9°C° 0.3 mm 5 mps 740 mmHg 81%
    14:00 +8°C° 0.3 mm 5 mps 740 mmHg 83%
    15:00 +8°C° 0.3 mm 5 mps 740 mmHg 84%
    16:00 +8°C° 0 mm 6 mps 740 mmHg 84%
    17:00 +6°C° 0 mm 7 mps 741 mmHg 83%
    18:00 +6°C° 0 mm 7 mps 742 mmHg 83%
    19:00 +6°C° 0 mm 7 mps 742 mmHg 83%
    20:00 +6°C° 0 mm 7 mps 743 mmHg 83%
    21:00 +6°C° 0 mm 8 mps 743 mmHg 83%
    22:00 +6°C° 0 mm 8 mps 744 mmHg 82%
    23:00 +6°C° 0 mm 8 mps 744 mmHg 82%

    Pasado mañana, 7 Diciembre, Sábado

    Tiempo Temperatura Precipitaciones Viento Presión Humedad
    00:00 +5°C° 0 mm 8 mps 745 mmHg 82%
    01:00 +5°C° 0 mm 7 mps 745 mmHg 83%
    02:00 +5°C° 0 mm 7 mps 746 mmHg 85%
    03:00 +5°C° 0 mm 6 mps 746 mmHg 86%
    04:00 +5°C° 0 mm 6 mps 747 mmHg 85%
    05:00 +5°C° 0 mm 6 mps 747 mmHg 85%
    06:00 +5°C° 0 mm 6 mps 748 mmHg 85%
    07:00 +5°C° 0 mm 6 mps 748 mmHg 85%
    08:00 +5°C° 0 mm 6 mps 748 mmHg 86%
    09:00 +7°C° 0 mm 6 mps 748 mmHg 86%
    10:00 +7°C° 0 mm 6 mps 748 mmHg 86%
    11:00 +8°C° 0 mm 5 mps 748 mmHg 86%
    12:00 +8°C° 0 mm 4 mps 748 mmHg 86%
    13:00 +8°C° 0 mm 5 mps 748 mmHg 86%
    14:00 +8°C° 0 mm 5 mps 747 mmHg 85%
    15:00 +8°C° 0 mm 5 mps 747 mmHg 84%
    16:00 +8°C° 0 mm 6 mps 746 mmHg 85%
    17:00 +9°C° 0 mm 6 mps 745 mmHg 86%
    18:00 +9°C° 0 mm 7 mps 744 mmHg 86%
    19:00 +9°C° 0.1 mm 7 mps 743 mmHg 85%
    20:00 +9°C° 0.1 mm 8 mps 741 mmHg 85%
    21:00 +9°C° 0.1 mm 8 mps 740 mmHg 84%
    22:00 +10°C° 0.8 mm 9 mps 739 mmHg 85%
    23:00 +9°C° 0.8 mm 10 mps 737 mmHg 85%

    8 Diciembre, Domingo

    Tiempo Temperatura Precipitaciones Viento Presión Humedad
    00:00 +11°C° 0.8 mm 10 mps 735 mmHg 86%
    01:00 +9°C° 0.1 mm 11 mps 736 mmHg 80%
    02:00 +8°C° 0.1 mm 11 mps 736 mmHg 73%
    03:00 +7°C° 0.1 mm 11 mps 736 mmHg 66%
    04:00 +6°C° 0 mm 11 mps 736 mmHg 68%
    05:00 +6°C° 0 mm 11 mps 737 mmHg 69%
    06:00 +4°C° 0 mm 11 mps 737 mmHg 71%
    07:00 +4°C° 0 mm 11 mps 737 mmHg 72%
    08:00 +4°C° 0 mm 11 mps 737 mmHg 73%
    09:00 +3°C° 0 mm 11 mps 737 mmHg 75%
    10:00 +4°C° 0.1 mm 11 mps 736 mmHg 74%
    11:00 +4°C° 0.1 mm 11 mps 736 mmHg 73%
    12:00 +4°C° 0.1 mm 11 mps 736 mmHg 72%
    13:00 +4°C° 0 mm 11 mps 735 mmHg 71%
    14:00 +3°C° 0 mm 11 mps 734 mmHg 70%
    15:00 +3°C° 0 mm 11 mps 734 mmHg 69%
    16:00 +3°C° 0.2 mm 11 mps 732 mmHg 72%
    17:00 +3°C° 0.2 mm 12 mps 731 mmHg 76%
    18:00 +3°C° 0.2 mm 12 mps 730 mmHg 80%
    19:00 +3°C° 0.6 mm 13 mps 728 mmHg 79%
    20:00 +4°C° 0.6 mm 14 mps 727 mmHg 79%
    21:00 +4°C° 0.6 mm 15 mps 726 mmHg 78%
    22:00 +4°C° 0.4 mm 15 mps 727 mmHg 76%
    23:00 +4°C° 0.4 mm 14 mps 727 mmHg 74%

    9 Diciembre, Lunes

    Tiempo Temperatura Precipitaciones Viento Presión Humedad
    00:00 +4°C° 0.4 mm 13 mps 727 mmHg 71%
    01:00 +4°C° 0 mm 12 mps 729 mmHg 74%
    02:00 +4°C° 0 mm 11 mps 730 mmHg 76%
    03:00 +4°C° 0 mm 11 mps 732 mmHg 78%
    04:00 +3°C° 0 mm 10 mps 734 mmHg 77%
    05:00 +3°C° 0 mm 10 mps 737 mmHg 76%
    06:00 +3°C° 0 mm 10 mps 739 mmHg 75%
    07:00 +3°C° 0 mm 10 mps 741 mmHg 74%
    08:00 +2°C° 0 mm 10 mps 743 mmHg 72%
    09:00 +2°C° 0 mm 11 mps 745 mmHg 71%
    10:00 +2°C° 0 mm 10 mps 746 mmHg 69%
    11:00 +3°C° 0 mm 10 mps 747 mmHg 67%
    12:00 +3°C° 0 mm 9 mps 748 mmHg 65%
    13:00 +4°C° 0 mm 8 mps 749 mmHg 67%
    14:00 +4°C° 0 mm 7 mps 750 mmHg 69%
    15:00 +3°C° 0 mm 6 mps 751 mmHg 70%
    16:00 +3°C° 0 mm 5 mps 751 mmHg 76%
    17:00 +4°C° 0 mm 4 mps 751 mmHg 81%
    18:00 +4°C° 0 mm 4 mps 750 mmHg 87%
    19:00 +5°C° 0.2 mm 4 mps 750 mmHg 87%
    20:00 +6°C° 0.2 mm 5 mps 749 mmHg 88%
    21:00 +5°C° 0.2 mm 6 mps 749 mmHg 89%
    22:00 +7°C° 0 mm 6 mps 748 mmHg 88%
    23:00 +7°C° 0 mm 6 mps 747 mmHg 86%

    10 Diciembre, Martes

    Tiempo Temperatura Precipitaciones Viento Presión Humedad
    00:00 +7°C° 0 mm 6 mps 746 mmHg 85%
    01:00 +7°C° 0.1 mm 5 mps 745 mmHg 86%
    02:00 +7°C° 0.1 mm 5 mps 744 mmHg 88%
    03:00 +8°C° 0.1 mm 5 mps 743 mmHg 89%
    04:00 +8°C° 0.2 mm 5 mps 741 mmHg 89%
    05:00 +8°C° 0.2 mm 6 mps 740 mmHg 90%
    06:00 +9°C° 0.2 mm 6 mps 739 mmHg 90%
    07:00 +9°C° 0.3 mm 6 mps 738 mmHg 91%
    08:00 +9°C° 0.3 mm 5 mps 737 mmHg 91%
    09:00 +9°C° 0.3 mm 5 mps 736 mmHg 91%
    10:00 +9°C° 0.3 mm 5 mps 734 mmHg 90%
    11:00 +9°C° 0.3 mm 5 mps 733 mmHg 90%
    12:00 +10°C° 0.3 mm 5 mps 732 mmHg 90%
    13:00 +10°C° 0.3 mm 6 mps 730 mmHg 87%
    14:00 +10°C° 0.3 mm 8 mps 729 mmHg 85%
    15:00 +11°C° 0.3 mm 9 mps 728 mmHg 82%
    16:00 +8°C° 0.3 mm 10 mps 728 mmHg 78%
    17:00 +6°C° 0.3 mm 11 mps 728 mmHg 74%
    18:00 +3°C° 0.3 mm 12 mps 728 mmHg 69%
    19:00 +3°C° 0 mm 12 mps 729 mmHg 67%
    20:00 +1°C° 0 mm 13 mps 729 mmHg 65%
    21:00 +1°C° 0 mm 14 mps 729 mmHg 63%
    22:00 +1°C° 0 mm 14 mps 729 mmHg 64%
    23:00 +1°C° 0 mm 14 mps 730 mmHg 65%
    Mostrar más